Wind_Speed
12 11 11 11 12 11 9 9 9 9 9 9 9 9 8 8 8 7 7 6 6 6 6 6 7 7 7 7 7 7 7 7 7 7 7 7 7 7 8 7 7 7 7 6 5 4 3 4 5
12 12 11 12 14 10 10 9 10 10 9 9 9 10 9 8 8 8 8 7 7 7 6 6 6 6 7 7 7 7 7 7 7 7 7 7 7 7 7 7 7 6 5 5 5 4 4 4 4
13 12 12 13 12 10 10 10 10 10 10 10 10 10 10 9 9 9 8 8 8 7 7 6 6 7 7 7 7 7 7 7 7 7 7 7 6 6 6 6 6 6 5 4 4 3 4 4 4
13 12 12 13 12 12 12 12 11 11 10 11 11 11 10 9 9 8 9 9 9 8 8 7 6 7 7 7 7 7 7 7 7 7 7 7 7 7 7 7 6 5 5 4 3 3 4 4 3
13 13 13 11 11 11 12 12 12 11 11 11 11 11 11 11 9 8 8 8 8 8 8 7 7 8 7 7 7 7 7 7 7 7 7 7 7 7 7 6 5 5 5 5 4 4 4 4 3
13 13 13 11 11 11 11 12 12 12 11 11 11 11 11 10 9 8 8 8 7 7 7 8 8 8 8 7 7 7 7 7 7 7 7 7 6 6 6 5 5 4 4 4 4 4 4 4 4
13 13 12 12 11 11 11 11 12 12 12 11 11 11 11 11 10 9 8 8 7 7 7 8 8 9 8 8 7 7 7 7 8 7 7 6 5 5 5 4 4 4 4 4 4 4 5 4 3
12 13 12 11 11 11 11 11 11 12 11 11 10 10 10 10 9 9 8 7 7 7 7 8 8 8 8 8 8 7 7 7 7 7 7 6 5 5 4 3 3 4 4 3 2 3 3 3 3
11 13 10 10 10 10 11 11 11 11 10 10 10 10 10 9 9 9 8 7 7 7 7 7 7 8 8 8 8 7 7 7 7 7 7 6 5 4 2 3 4 4 3 2 3 3 2 2 2
11 11 9 9 10 10 10 11 10 10 10 9 9 10 10 9 9 8 8 7 6 6 7 7 7 7 7 7 7 6 6 6 6 6 5 5 4 2 2 3 4 4 3 3 3 3 2 1 2
10 10 10 9 9 9 10 10 10 10 10 9 9 9 9 9 9 8 8 7 7 6 6 6 6 6 6 6 6 6 5 5 5 4 4 4 3 2 2 3 4 3 4 3 3 2 1 1 2
9 9 9 9 9 9 9 9 9 9 9 9 8 8 8 8 8 8 7 6 6 6 6 6 6 6 6 5 5 4 4 4 4 3 3 3 2 2 2 3 4 4 3 3 3 2 2 2 2
8 8 8 8 8 8 8 8 8 8 8 8 8 8 7 7 7 6 6 5 6 6 6 6 5 5 5 5 4 3 3 3 3 3 3 3 2 2 2 3 3 3 3 3 3 3 4 3 4
6 6 6 7 7 7 7 6 6 7 8 8 8 7 7 7 6 5 5 5 5 5 6 5 5 5 5 4 3 3 3 3 3 3 3 2 2 1 1 2 3 3 3 3 3 4 4 4 4
5 5 5 5 6 6 6 6 6 6 6 7 7 7 6 6 6 5 5 5 4 4 5 4 4 4 4 4 4 3 3 3 2 2 2 1 1 0 0 1 2 3 3 3 3 3 4 4 4
5 4 3 4 4 5 5 5 5 5 5 6 6 6 5 6 5 4 4 4 3 3 3 3 3 4 4 4 4 3 3 3 2 2 1 0 1 1 0 1 2 2 3 3 3 4 3 4 4
3 3 1 2 3 4 4 4 4 4 5 5 4 5 5 5 5 4 3 3 2 2 2 3 3 3 4 3 3 3 3 2 2 2 2 1 1 2 2 2 2 2 3 3 4 4 4 5 5
3 2 1 1 2 2 3 3 3 4 4 4 3 4 4 4 4 4 3 3 3 2 2 2 2 2 3 2 2 2 2 2 2 2 3 3 2 3 3 3 3 3 3 4 5 5 5 5 6
5 3 2 2 2 2 3 3 3 3 4 4 3 3 4 4 4 4 4 3 3 3 2 1 2 2 2 2 2 2 2 2 2 3 3 3 3 4 3 3 3 3 4 4 4 4 5 6 6
7 5 4 3 3 2 2 3 4 4 4 3 3 3 3 4 4 3 3 3 2 2 2 0 0 0 1 1 2 2 3 3 3 3 3 3 3 4 4 3 4 4 4 4 5 5 6 6 7
9 8 7 6 5 4 4 4 4 5 4 4 3 3 3 4 4 3 3 3 3 2 2 2 1 1 1 1 2 3 3 3 3 3 3 3 3 4 4 4 4 4 4 5 5 6 6 6 7
11 11 9 8 7 6 6 4 5 5 5 5 4 4 4 4 3 3 3 3 4 4 3 3 3 3 2 2 3 3 4 4 4 4 4 4 4 4 5 5 5 5 5 5 6 6 6 7 8
14 13 12 11 10 8 7 5 5 5 4 5 4 4 4 3 3 4 4 4 5 4 4 4 4 4 4 4 4 4 5 6 6 6 6 5 5 5 6 6 6 6 6 7 7 7 8 9 9
15 14 13 12 10 10 9 7 6 6 5 5 5 4 4 4 4 5 5 5 5 5 5 5 5 4 4 5 5 6 6 6 7 7 7 7 7 7 7 8 8 8 8 8 9 9 9 10 11
16 14 13 11 11 11 10 9 8 7 6 6 6 5 5 5 6 6 6 6 6 6 6 6 6 5 5 5 6 7 7 7 7 8 8 9 9 9 8 9 9 10 10 10 10 10 11 11 11
16 15 14 13 12 12 12 11 10 9 8 7 7 7 7 7 7 8 7 7 7 6 6 6 6 6 6 6 7 7 8 8 8 9 9 10 11 11 10 10 10 11 11 11 11 11 12 13 13
18 17 15 14 14 14 14 13 12 11 9 9 9 9 8 8 8 8 8 8 8 7 7 8 8 8 7 7 8 9 9 10 10 11 11 11 12 13 13 12 12 11 12 12 13 13 14 15 15
19 18 18 16 15 15 15 14 14 13 11 10 10 10 9 9 9 8 9 9 9 9 10 10 10 10 9 9 10 10 11 12 13 13 13 13 14 14 14 14 13 14 13 13 15 16 16 16 16
18 19 19 18 17 15 15 14 14 13 13 12 12 12 12 11 10 9 9 10 11 11 12 12 12 11 11 11 12 12 12 13 14 14 14 14 14 15 16 17 17 16 15 16 17 17 17 18 18
20 19 19 19 18 18 16 16 15 14 13 13 14 14 14 13 12 12 12 12 12 13 13 13 13 13 13 13 13 13 14 14 14 15 15 15 15 16 18 18 18 17 17 18 19 19 19 18 19
Wind_Direction
90 88 88 87 82 80 85 92 95 91 83 85 84 89 95 97 92 92 95 97 98 112 122 129 134 137 140 142 143 150 149 145 138 136 138 137 138 135 139 144 145 146 148 152 152 155 154 146 148
88 86 87 84 81 82 82 88 92 93 86 83 85 88 92 93 90 92 93 98 98 104 120 130 135 142 141 147 149 156 154 150 147 143 141 140 143 144 145 153 154 155 157 160 155 160 164 156 153
86 86 86 82 80 81 79 83 89 93 87 85 86 85 89 92 91 92 93 95 95 98 109 117 132 143 144 144 148 150 152 150 148 145 147 150 153 154 154 154 155 157 159 164 166 174 178 162 163
85 86 84 80 79 80 79 81 87 92 88 85 85 82 82 88 91 92 92 93 89 95 103 108 117 131 136 137 143 144 145 145 149 147 147 150 155 155 157 156 160 167 166 167 171 181 194 180 174
84 82 78 79 81 80 79 81 80 88 88 83 80 78 78 84 87 89 90 91 86 91 100 103 113 125 129 131 136 137 136 141 143 141 140 143 146 156 157 160 166 170 174 173 180 187 202 200 190
81 79 81 83 84 80 78 79 81 83 83 81 78 76 76 80 84 86 89 88 86 91 95 107 113 120 122 127 135 136 138 141 142 143 141 141 143 146 148 155 158 164 178 183 190 203 205 188 181
81 81 82 85 83 80 79 80 81 81 81 83 81 79 79 81 82 82 85 85 89 93 99 108 113 115 114 120 126 130 134 137 139 140 141 143 146 148 152 149 149 155 163 168 184 203 190 179 170
83 82 82 87 85 82 81 80 79 79 80 84 86 84 82 80 79 80 81 83 88 94 100 102 103 109 114 117 121 126 130 132 136 139 141 144 151 152 151 153 160 158 155 163 162 161 171 164 157
83 81 84 86 85 83 81 80 78 78 79 82 83 82 81 80 81 80 81 84 92 101 102 101 101 104 111 116 121 121 120 124 128 134 137 141 144 143 161 177 180 182 178 169 151 138 140 151 167
81 85 81 81 83 82 81 79 78 75 74 78 78 78 79 79 79 79 80 85 92 102 105 106 106 110 111 113 115 119 121 123 124 126 134 136 137 147 183 200 198 189 181 167 163 138 161 174 193
83 85 80 78 78 80 78 75 76 73 70 71 73 75 77 76 75 78 81 84 90 94 101 104 105 109 115 113 112 115 118 120 117 119 122 129 133 135 165 181 190 191 184 180 178 180 195 209 231
90 87 81 78 76 76 76 73 74 70 66 67 69 69 72 74 73 77 80 81 88 94 100 105 104 105 106 109 108 109 111 111 112 115 117 120 122 137 143 169 173 183 198 209 208 223 236 237 243
94 90 80 74 74 73 74 74 73 71 69 66 66 66 67 69 72 73 75 85 93 97 102 105 108 107 107 109 111 109 113 116 122 130 129 130 135 147 152 153 171 185 206 226 232 241 251 256 252
96 86 77 72 68 66 67 68 67 67 70 68 65 63 64 66 68 73 80 90 99 104 106 102 100 103 103 99 102 96 97 113 122 125 132 134 139 138 155 174 189 196 217 238 246 247 253 261 258
103 87 77 71 65 58 57 58 55 56 62 66 66 63 59 58 59 67 77 89 102 108 109 105 101 99 94 85 91 91 84 91 95 95 108 116 108 84 152 195 206 214 229 248 248 248 256 259 264
107 88 68 61 57 48 50 50 45 49 53 57 61 60 52 48 51 55 61 74 96 104 103 96 95 90 88 87 91 90 84 78 71 55 44 316 301 333 313 256 247 249 248 248 253 256 257 263 272
109 99 69 39 42 44 42 40 37 44 46 45 50 52 46 39 38 41 49 59 76 97 97 96 92 88 84 83 83 76 63 52 32 19 358 340 302 298 306 307 287 261 257 259 263 263 264 267 272
184 186 253 308 2 21 28 32 21 25 31 30 36 43 40 35 35 36 42 51 58 79 98 102 92 83 74 74 64 50 39 33 25 17 6 0 350 332 314 309 299 279 270 269 274 270 264 270 277
211 223 248 261 299 342 5 12 6 4 14 17 19 31 29 26 27 30 39 45 46 59 76 104 98 80 72 61 35 26 23 20 14 4 357 356 354 348 332 314 313 303 287 279 279 278 276 277 280
224 233 246 252 268 292 326 339 339 344 353 359 6 13 9 15 10 10 28 25 19 25 25 16 170 110 72 39 10 5 2 359 356 353 352 356 357 353 342 325 316 306 299 292 286 286 285 282 281
231 233 239 250 264 275 287 314 328 339 345 352 341 334 340 346 346 341 341 350 347 350 354 347 309 309 340 349 354 352 349 345 336 339 347 345 342 344 343 334 326 317 300 290 284 286 288 287 288
236 239 243 250 263 271 276 287 302 320 328 330 334 340 338 335 331 321 317 324 324 320 319 317 316 293 288 303 319 329 336 332 325 324 325 324 328 334 335 326 319 314 306 297 293 289 289 290 291
240 245 249 252 258 263 269 268 281 296 308 314 316 324 325 323 320 315 309 315 317 315 317 322 323 299 280 287 301 314 323 322 316 312 314 315 315 317 322 319 312 308 303 296 296 292 286 289 293
242 248 254 256 258 261 261 261 265 281 288 298 304 315 309 301 305 305 303 306 315 315 316 319 321 307 288 288 295 304 312 318 316 313 313 315 316 315 315 314 311 307 302 296 292 290 289 290 291
241 246 255 259 260 261 259 257 257 262 271 283 292 295 295 294 297 301 299 297 301 303 303 306 308 306 296 290 288 292 300 308 311 314 311 310 312 307 304 303 303 302 301 296 293 292 292 292 292
239 238 241 247 255 261 262 258 259 258 261 270 282 289 291 289 290 295 299 297 297 300 301 300 302 301 297 290 287 293 298 300 303 305 306 302 303 304 301 299 297 297 299 296 294 293 292 293 294
237 237 237 243 249 253 259 262 262 262 260 264 273 280 288 288 286 286 290 291 291 291 292 292 296 294 292 291 290 292 293 294 297 300 303 301 299 301 302 299 296 295 295 295 293 291 292 293 294
236 237 239 241 247 255 262 266 264 260 260 265 272 277 285 288 286 282 284 285 288 290 289 287 291 292 289 289 295 298 296 295 297 299 300 298 296 299 301 299 295 293 292 294 293 291 290 292 293
238 240 243 243 244 249 259 265 265 260 258 260 268 273 280 282 281 282 283 281 284 288 290 288 286 288 287 287 292 295 296 295 296 299 300 299 297 298 300 299 294 293 293 293 293 292 291 291 291
238 240 243 245 249 248 252 260 261 260 257 258 262 268 274 274 278 282 285 283 282 285 288 288 286 285 285 286 287 289 292 293 295 298 298 297 297 300 302 301 300 294 291 293 293 291 293 291 291
Height
5895 5894 5894 5895 5896 5896 5895 5895 5894 5893 5892 5891 5890 5890 5889 5889 5890 5891 5888 5886 5885 5885 5885 5885 5885 5886 5886 5886 5887 5887 5888 5888 5889 5890 5890 5891 5892 5893 5893 5894 5894 5895 5896 5897 5897 5898 5898 5898 5899
5897 5896 5897 5897 5897 5898 5897 5896 5895 5894 5893 5892 5891 5891 5890 5890 5889 5889 5888 5887 5886 5886 5885 5885 5885 5886 5886 5886 5887 5887 5888 5888 5889 5890 5891 5892 5893 5893 5894 5895 5895 5896 5897 5897 5898 5898 5898 5899 5899
5899 5899 5900 5899 5899 5899 5898 5897 5896 5895 5894 5893 5893 5892 5892 5891 5890 5890 5889 5888 5888 5887 5886 5885 5885 5885 5886 5886 5886 5887 5888 5889 5889 5890 5891 5892 5893 5894 5894 5895 5896 5897 5897 5898 5898 5899 5899 5900 5900
5901 5902 5902 5902 5901 5901 5899 5898 5897 5896 5896 5895 5894 5894 5893 5892 5892 5891 5890 5890 5889 5888 5887 5886 5884 5885 5886 5886 5887 5887 5888 5888 5889 5890 5892 5893 5893 5894 5895 5896 5897 5897 5897 5898 5898 5899 5899 5900 5900
5903 5904 5904 5904 5903 5902 5901 5900 5898 5898 5897 5896 5896 5895 5894 5893 5893 5892 5892 5891 5890 5889 5888 5887 5885 5886 5887 5887 5887 5888 5888 5889 5890 5891 5892 5893 5894 5894 5895 5896 5897 5897 5897 5898 5899 5899 5900 5900 5901
5906 5906 5907 5906 5905 5904 5903 5901 5900 5899 5898 5898 5897 5896 5895 5895 5894 5894 5893 5893 5892 5891 5890 5889 5888 5888 5888 5889 5889 5889 5889 5889 5890 5891 5892 5893 5894 5895 5896 5896 5897 5897 5897 5898 5899 5899 5900 5900 5901
5908 5908 5909 5908 5907 5906 5905 5904 5902 5901 5900 5900 5899 5898 5897 5896 5896 5895 5895 5894 5894 5893 5892 5891 5891 5890 5890 5890 5891 5890 5891 5891 5891 5892 5893 5894 5895 5895 5896 5896 5897 5897 5898 5898 5899 5899 5900 5900 5901
5910 5911 5911 5910 5909 5908 5907 5905 5904 5903 5902 5902 5901 5900 5899 5898 5897 5897 5896 5896 5895 5895 5894 5894 5893 5893 5892 5892 5892 5892 5892 5892 5893 5893 5894 5895 5895 5896 5896 5897 5897 5898 5898 5898 5899 5899 5900 5900 5901
5912 5914 5913 5912 5911 5910 5909 5907 5906 5905 5904 5903 5902 5902 5901 5900 5899 5898 5898 5898 5897 5897 5896 5896 5895 5895 5895 5894 5894 5894 5894 5894 5894 5894 5895 5896 5896 5896 5896 5896 5897 5898 5898 5899 5899 5900 5900 5900 5901
5915 5916 5915 5913 5912 5911 5910 5909 5908 5907 5907 5906 5905 5904 5902 5901 5901 5900 5899 5899 5899 5898 5898 5898 5897 5897 5897 5896 5896 5896 5895 5896 5896 5897 5897 5897 5897 5897 5896 5895 5897 5898 5899 5899 5900 5900 5900 5901 5901
5916 5917 5916 5915 5914 5913 5912 5911 5910 5909 5909 5908 5907 5906 5904 5903 5902 5902 5901 5901 5900 5900 5900 5900 5899 5899 5898 5898 5898 5897 5897 5897 5898 5898 5898 5898 5898 5897 5896 5895 5896 5898 5899 5899 5900 5900 5900 5901 5901
5918 5918 5917 5916 5916 5915 5914 5913 5912 5911 5911 5910 5908 5907 5906 5905 5904 5904 5903 5902 5902 5902 5901 5901 5901 5901 5900 5900 5900 5899 5899 5899 5899 5899 5899 5899 5899 5898 5897 5896 5897 5898 5899 5899 5900 5900 5900 5901 5901
5920 5919 5919 5918 5917 5916 5915 5915 5914 5913 5912 5911 5910 5909 5908 5907 5906 5905 5905 5904 5904 5903 5903 5903 5903 5902 5902 5901 5901 5901 5901 5901 5900 5900 5900 5900 5900 5899 5898 5898 5898 5898 5899 5899 5899 5900 5900 5900 5901
5921 5921 5920 5919 5918 5917 5917 5916 5916 5915 5914 5913 5912 5911 5910 5909 5908 5907 5906 5906 5905 5905 5905 5904 5904 5904 5903 5903 5902 5902 5902 5901 5901 5901 5901 5900 5900 5899 5899 5898 5898 5898 5898 5899 5899 5899 5900 5900 5900
5922 5922 5922 5921 5920 5919 5918 5918 5917 5916 5915 5914 5913 5912 5911 5910 5909 5908 5908 5907 5907 5906 5906 5906 5905 5905 5905 5904 5903 5903 5903 5902 5902 5902 5901 5901 5900 5899 5898 5898 5898 5898 5898 5898 5899 5899 5899 5899 5899
5923 5924 5924 5923 5921 5920 5921 5920 5918 5917 5916 5915 5914 5914 5913 5912 5911 5910 5909 5908 5908 5908 5907 5907 5906 5906 5906 5905 5905 5904 5904 5903 5903 5902 5902 5901 5901 5900 5899 5898 5898 5898 5898 5898 5898 5898 5898 5898 5899
5925 5925 5924 5924 5922 5921 5921 5920 5919 5918 5917 5916 5915 5914 5914 5913 5912 5911 5910 5909 5909 5909 5908 5908 5907 5907 5907 5906 5906 5905 5905 5904 5904 5903 5902 5901 5901 5900 5899 5899 5898 5897 5897 5898 5898 5898 5898 5898 5898
5925 5925 5925 5924 5923 5922 5921 5920 5920 5919 5918 5917 5916 5915 5915 5914 5913 5912 5911 5910 5910 5909 5909 5909 5908 5908 5907 5907 5906 5906 5905 5905 5904 5903 5902 5902 5901 5900 5900 5899 5898 5897 5897 5897 5897 5897 5897 5897 5897
5924 5924 5924 5924 5923 5922 5921 5921 5920 5919 5919 5918 5917 5916 5915 5914 5913 5913 5912 5911 5910 5910 5910 5910 5909 5909 5908 5908 5907 5906 5906 5905 5904 5903 5902 5902 5901 5900 5900 5899 5898 5897 5897 5897 5896 5896 5896 5896 5896
5922 5923 5924 5924 5923 5922 5922 5921 5921 5920 5919 5918 5917 5917 5916 5915 5914 5913 5913 5912 5911 5911 5910 5910 5910 5909 5909 5908 5907 5907 5906 5905 5904 5903 5903 5902 5901 5900 5899 5899 5898 5897 5897 5896 5896 5895 5895 5895 5895
5921 5922 5922 5922 5922 5922 5922 5922 5921 5920 5919 5918 5917 5917 5916 5915 5915 5914 5913 5913 5912 5911 5911 5910 5910 5909 5909 5908 5908 5907 5906 5905 5904 5903 5902 5902 5901 5900 5899 5898 5898 5897 5896 5896 5895 5894 5894 5894 5893
5919 5920 5921 5921 5921 5922 5922 5922 5921 5920 5919 5918 5917 5917 5916 5915 5915 5914 5913 5913 5912 5912 5911 5910 5910 5909 5908 5908 5908 5907 5906 5905 5904 5903 5902 5901 5900 5900 5899 5898 5897 5896 5895 5894 5894 5893 5893 5892 5891
5917 5918 5919 5919 5920 5921 5921 5921 5922 5919 5919 5918 5917 5916 5916 5915 5915 5914 5913 5912 5912 5911 5910 5910 5909 5908 5908 5907 5907 5906 5906 5905 5903 5903 5902 5900 5899 5899 5898 5897 5896 5895 5894 5893 5892 5892 5891 5891 5890
5913 5915 5916 5917 5918 5919 5919 5920 5920 5919 5918 5917 5917 5916 5915 5915 5914 5914 5913 5912 5911 5911 5910 5909 5908 5907 5907 5906 5906 5905 5905 5904 5903 5902 5901 5900 5898 5897 5896 5896 5895 5894 5893 5892 5891 5890 5889 5889 5888
5910 5913 5915 5916 5917 5917 5917 5917 5918 5917 5917 5916 5916 5915 5914 5914 5913 5913 5912 5911 5910 5910 5909 5908 5907 5906 5906 5905 5905 5904 5903 5902 5902 5901 5900 5898 5897 5896 5895 5893 5893 5892 5890 5889 5889 5888 5887 5886 5885
5907 5910 5913 5915 5916 5916 5914 5914 5916 5915 5914 5914 5914 5913 5913 5913 5912 5912 5911 5910 5910 5909 5908 5907 5906 5905 5904 5904 5903 5902 5902 5901 5900 5899 5898 5897 5896 5894 5893 5891 5890 5889 5888 5887 5886 5885 5884 5883 5882
5902 5904 5907 5910 5911 5912 5912 5912 5912 5912 5912 5912 5912 5912 5911 5911 5910 5910 5909 5909 5908 5907 5906 5905 5905 5904 5903 5902 5902 5901 5900 5899 5898 5897 5896 5895 5893 5892 5891 5889 5888 5886 5885 5884 5883 5882 5881 5880 5879
5898 5900 5903 5905 5907 5908 5909 5909 5910 5909 5910 5910 5910 5910 5909 5909 5908 5908 5907 5907 5906 5905 5904 5903 5903 5902 5901 5901 5900 5899 5898 5897 5896 5894 5893 5892 5891 5889 5888 5886 5885 5883 5882 5881 5879 5878 5877 5876 5875
5894 5896 5898 5900 5902 5905 5907 5909 5906 5906 5907 5907 5907 5907 5907 5906 5906 5905 5905 5904 5903 5903 5902 5901 5900 5899 5899 5898 5897 5896 5895 5894 5893 5892 5890 5889 5887 5886 5885 5883 5881 5880 5878 5877 5875 5874 5873 5871 5870
5889 5891 5894 5896 5897 5899 5901 5905 5902 5902 5903 5903 5903 5903 5903 5903 5903 5902 5902 5901 5900 5900 5899 5898 5897 5896 5896 5895 5894 5893 5892 5891 5890 5889 5887 5885 5884 5883 5881 5879 5877 5875 5874 5873 5871 5869 5868 5866 5865